This demonstration page uses our WeatherBlox Daily Observations layout. Learn more.

Left ArrowRight Arrow

39.01783, -85.05884

Hourly Observations for June 4, 2015

Temp ( °F °C ) Dew Point ( °F °C ) Humidity (%) Winds ( mph kmh ) Pressure ( in mb ) Visibility ( mi km ) Precip ( " mm )
12:52 am 00:52 Clear with Mist and Fog 60 15.6 57 13.9 90 90 N N/A 30.01 1016 6 10 N/A
1:52 am 01:52 Partly Cloudy with Mist and Fog 60 15.6 57 13.9 90 90 N N/A 30.01 1016 6 10 N/A
2:40 am 02:40 Mostly Cloudy with Mist and Fog 59 15 55 13 88 88 W 5 7 30.03 1017 6 10 N/A
2:52 am 02:52 Mostly Cloudy with Mist and Fog 59 15 57 13.9 93 93 WNW 6 9 30.02 1017 6 10 N/A
3:52 am 03:52 Mostly Clear with Mist and Fog 59 15 56 13.3 90 90 N N/A 30.01 1016 5 8 N/A
4:52 am 04:52 Mostly Clear with Mist and Fog 56 13.3 54 12.2 93 93 N N/A 30.01 1016 4 6 N/A
5:09 am 05:09 Mostly Cloudy with Mist and Fog 55 13 54 12 94 94 N N/A 30.03 1017 4 6 N/A
5:52 am 05:52 Partly Cloudy with Mist and Fog 61 16.1 58 14.4 90 90 N 3 6 30.02 1017 4 6 N/A
6:26 am 06:26 Cloudy with Mist and Fog 61 16 59 15 94 94 N N/A 30.06 1018 3 4 N/A
6:52 am 06:52 Mostly Cloudy with Mist and Fog 61 16.1 59 15 93 93 N N/A 30.04 1017 3 5 N/A
7:52 am 07:52 Mostly Cloudy with Mist and Fog 64 17.8 60 15.6 87 87 N N/A 30.06 1018 3 5 N/A
8:52 am 08:52 Mostly Sunny 68 20 60 15.6 76 76 N 3 6 30.07 1018 7 11 N/A
9:52 am 09:52 Partly Cloudy 71 21.7 60 15.6 68 68 N N/A 30.06 1018 8 13 N/A
10:52 am 10:52 Partly Cloudy 74 23.3 61 16.1 64 64 N N/A 30.04 1017 9 14 N/A
11:52 am 11:52 Partly Cloudy 75 23.9 59 15 58 58 N N/A 30.04 1017 10 16 N/A
12:52 pm 12:52 Partly Cloudy 77 25 59 15 54 54 SSW 5 7 30.04 1017 10 16 N/A
1:52 pm 13:52 Partly Cloudy 79 26.1 59 15 50 50 S 9 15 30.02 1017 10 16 N/A
2:52 pm 14:52 Partly Cloudy 79 26.1 60 15.6 52 52 S 7 11 30.03 1017 10 16 N/A
3:52 pm 15:52 Mostly Cloudy 81 27.2 59 15 47 47 SW 8 13 30.01 1016 10 16 N/A
4:52 pm 16:52 Mostly Cloudy 82 27.8 58 14.4 44 44 VRB 6 9 30.01 1016 10 16 N/A
5:52 pm 17:52 Mostly Cloudy 81 27.2 59 15 47 47 W 9 15 30.01 1016 10 16 N/A
6:52 pm 18:52 Mostly Cloudy 79 26.1 58 14.4 49 49 W 6 9 30.00 1016 10 16 N/A
7:52 pm 19:52 Mostly Cloudy 78 25.6 56 13.3 47 47 WSW 3 6 30.00 1016 10 16 N/A
8:52 pm 20:52 Mostly Cloudy 74 23.3 59 15 60 60 WSW 3 6 30.00 1016 10 16 N/A
9:52 pm 21:52 Mostly Cloudy 68 20 59 15 73 73 N N/A 29.99 1016 10 16 N/A
10:52 pm 22:52 Mostly Cloudy 65 18.3 58 14.4 78 78 N N/A 30.01 1016 9 14 N/A
11:52 pm 23:52 Mostly Cloudy 65 18.3 58 14.4 78 78 W 3 6 30.01 1016 9 14 N/A

Powered by AerisWeather